Change the Weather History Date:

Thursday, March 28, 2013

  Actual Average (KHGR) Record (KHGR)
Temperature  
Mean Temperature 42 °F -  
Max Temperature 46 °F 55 °F 80 °F (1998)
Min Temperature 37 °F 37 °F 23 °F (2011)
Degree Days  
Heating Degree Days 24    
Moisture  
Dew Point 26 °F    
Average Humidity 56    
Maximum Humidity 70    
Minimum Humidity 39    
Precipitation  
Precipitation 0.00 in - - ()
Sea Level Pressure  
Sea Level Pressure 30.12 in    
Wind  
Wind Speed 5 mph (NNW)    
Max Wind Speed 13 mph    
Max Gust Speed 21 mph    
Visibility 10 miles    
Events Snow    
Averages and records for this station are not official NWS values.
T = Trace of Precipitation, MM = Missing Value Source: NWS Daily Summary

Daily Weather History Graph

Daily Weather History Graph

Search for Another Location

Airport or City:

Trip Planner

Search our weather history database for the weather conditions in past years. The results will help you decide how hot, cold, wet, or windy it might be!

Date:

Astronomy

Mar. 28, 2013 Rise Set
Actual Time 6:59 AM EDT 7:30 PM EDT
Civil Twilight 6:32 AM EDT 7:57 PM EDT
Nautical Twilight 6:00 AM EDT 8:29 PM EDT
Astronomical Twilight 5:28 AM EDT 9:01 PM EDT
Moon 9:19 PM EDT (3/28) 7:26 AM EDT (3/28)
Length of Visible Light 13h 24m
Length of Day
12h 30m
Full, 98% of the Moon is Illuminated
Mar 28
Full
Apr 3
Last Quarter
Apr 10
New
Apr 18
First Quarter
Apr 25
Full

Hourly Weather History & Observations

Time (EDT) Temp. Windchill Dew Point Humidity Pressure Visibility Wind Dir Wind Speed Gust Speed Precip Events Conditions
12:53 AM 37.0 °F 34.5 °F 27.0 °F 67% 30.10 in 10.0 mi Variable 3.5 mph - N/A   Clear
1:53 AM 37.9 °F 35.5 °F 28.0 °F 68% 30.08 in 10.0 mi Variable 3.5 mph - N/A   Partly Cloudy
2:53 AM 37.9 °F 32.7 °F 28.0 °F 68% 30.08 in 10.0 mi Variable 6.9 mph - N/A   Partly Cloudy
3:53 AM 37.9 °F - 27.0 °F 65% 30.07 in 10.0 mi Calm Calm - N/A   Mostly Cloudy
4:53 AM 37.9 °F 34.4 °F 27.0 °F 65% 30.07 in 9.0 mi Variable 4.6 mph - 0.00 in Snow Light Snow
5:29 AM 39.2 °F 35.9 °F 26.6 °F 61% 30.04 in 10.0 mi Variable 4.6 mph - 0.00 in   Overcast
5:53 AM 37.9 °F 35.5 °F 27.0 °F 65% 30.07 in 10.0 mi WSW 3.5 mph - 0.00 in   Overcast
6:53 AM 39.0 °F - 27.0 °F 62% 30.07 in 10.0 mi Calm Calm - N/A   Overcast
7:53 AM 39.0 °F 34.8 °F 28.0 °F 65% 30.08 in 10.0 mi Variable 5.8 mph - N/A   Overcast
8:53 AM 39.9 °F 35.1 °F 28.9 °F 65% 30.10 in 10.0 mi Variable 6.9 mph - N/A   Overcast
9:35 AM 39.2 °F 35.0 °F 30.2 °F 70% 30.08 in 10.0 mi Variable 5.8 mph - N/A   Overcast
9:53 AM 39.9 °F 35.1 °F 30.0 °F 68% 30.11 in 10.0 mi Variable 6.9 mph - N/A   Overcast
10:53 AM 41.0 °F 34.3 °F 25.0 °F 53% 30.13 in 10.0 mi North 11.5 mph 20.7 mph N/A   Mostly Cloudy
11:53 AM 43.0 °F 37.2 °F 24.1 °F 47% 30.13 in 10.0 mi NW 10.4 mph 20.7 mph N/A   Overcast
12:53 PM 45.0 °F 39.7 °F 21.0 °F 39% 30.12 in 10.0 mi North 10.4 mph 19.6 mph N/A   Overcast
1:53 PM 44.1 °F 37.7 °F 21.9 °F 42% 30.13 in 10.0 mi NW 12.7 mph 19.6 mph N/A   Overcast
2:53 PM 45.0 °F 40.6 °F 23.0 °F 42% 30.12 in 10.0 mi North 8.1 mph - N/A   Overcast
3:53 PM 46.0 °F 41.9 °F 24.1 °F 42% 30.12 in 10.0 mi North 8.1 mph 18.4 mph N/A   Overcast
4:53 PM 46.0 °F 41.4 °F 24.1 °F 42% 30.13 in 10.0 mi North 9.2 mph - N/A   Overcast
5:53 PM 45.0 °F 42.6 °F 24.1 °F 44% 30.14 in 10.0 mi Variable 4.6 mph - N/A   Overcast
6:53 PM 43.0 °F 41.3 °F 27.0 °F 53% 30.17 in 10.0 mi Variable 3.5 mph - N/A   Overcast
7:53 PM 43.0 °F - 28.0 °F 56% 30.19 in 10.0 mi Calm Calm - N/A   Overcast
8:53 PM 43.0 °F - 27.0 °F 53% 30.20 in 10.0 mi Calm Calm - N/A   Overcast
9:53 PM 43.0 °F 40.3 °F 26.1 °F 51% 30.22 in 10.0 mi Variable 4.6 mph - N/A   Overcast
10:53 PM 42.1 °F - 27.0 °F 55% 30.22 in 10.0 mi Calm Calm - N/A   Overcast
11:53 PM 42.1 °F 39.2 °F 26.1 °F 53% 30.22 in 10.0 mi North 4.6 mph - N/A   Overcast